Starlink 31929

operational
NORAD ID: 59836 Int'l Des: 2024-097 Owner: SPXS Country: US Constellation: starlink
LEOCIRCULAR

关于 Starlink 31929

正在加载描述...

实时位置

正在加载3D地球...

即将过境

高度历史

Altitude vs Time

uPlot chart will show altitude changes over time

两行轨道根数

1 59836U 24097B 25259.17572068 .00000787 00000-0 38123-4 0 9995
2 59836 42.9965 180.2263 0000929 109.4852 250.6101 15.27578467 75222
Epoch: Sep 16, 2025 • Age: 12 hours

当前状态

高度 485.9 km
速度 7.62 km/s
星下点 -13.07°S, 83.24°W
发射日期 May 23, 2024
运行时间 1.3 years
类型 internet

技术详情

分类 Payload
质量 730.00 kg
干质量 700.00 kg
总质量 730.00 kg
长度 0.30 m
直径 4.10 m
跨度 29.00 m
形状 Box + pan
制造商 SPXS
平台类型 Starlink V2M
阶段状态 In Orbit
所有者/国家 SPXS/US

大型星座

Loading constellations...